Location: Drawsko Pomorskie
(53.5317°N, 15.8111°E)
Time: 21:52:21
(UTC+02:00)

ISS - Pass Details

Date: 29 January 2019
Orbit: 411 x 421 km, 51.6° (Epoch: 16 October)

Event Time Altitude Azimuth Distance (km) Brightness Sun altitude
Rises 18:04:47 0° 249° (WSW) 2,370 1.9 -13.5°
Reaches altitude 10° 18:06:54 10° 245° (WSW) 1,508 0.4 -13.9°
Maximum altitude 18:10:13 53° 168° (SSE) 528 -3.3 -14.3°
Enters shadow 18:11:42 28° 104° (ESE) 829 -2.8 -14.6°
